Location: Amsterdam
(30.7274°N, 84.4357°W)
Time: 21:27:00
(UTC+00:00)

Explorer 11/Cluster Stage 4 - Pass Details

Date: 22 February 2026
Orbit: 463 x 1176 km, 28.8° (Epoch: 7 March)

Event Time Altitude Azimuth Distance (km) Brightness Sun altitude
Rises 20:03:08 0° 273° (W) 2,827 9.9 38.4°
Reaches altitude 10° 20:05:40 10° 267° (W) 1,826 9.2 38.1°
Maximum altitude 20:09:37 45° 194° (SSW) 689 7.8 37.5°
Drops below altitude 10° 20:13:08 10° 120° (ESE) 1,625 8.2 36.9°
Sets 20:15:16 0° 114° (ESE) 2,475 9.0 36.6°
